QPF
0.06 0.09 0.09 0.05 0.04 0.05 0.06 0.06 0.07 0.07 0.08 0.09 0.10 0.11 0.10 0.08 0.07 0.08 0.11 0.14 0.17 0.19 0.21 0.21 0.21 0.22 0.24 0.22 0.21 0.19 0.21 0.24 0.31 0.29 0.20 0.15 0.12 0.11 0.09 0.08 0.05 0.04 0.04
0.05 0.05 0.04 0.02 0.02 0.02 0.03 0.04 0.04 0.06 0.07 0.10 0.11 0.10 0.09 0.08 0.09 0.11 0.14 0.14 0.15 0.18 0.22 0.27 0.28 0.26 0.26 0.24 0.22 0.22 0.22 0.20 0.25 0.27 0.19 0.15 0.12 0.09 0.08 0.07 0.04 0.04 0.04
0.06 0.07 0.03 0.01 0.01 0.01 0.02 0.03 0.03 0.03 0.04 0.06 0.07 0.08 0.09 0.09 0.10 0.11 0.11 0.09 0.09 0.10 0.14 0.20 0.23 0.19 0.17 0.15 0.16 0.20 0.22 0.22 0.23 0.23 0.20 0.13 0.08 0.08 0.07 0.07 0.05 0.04 0.03
0.03 0.02 0.01 0.01 0.01 0.01 0.01 0.01 0.01 0.01 0.02 0.03 0.05 0.06 0.06 0.06 0.05 0.04 0.04 0.04 0.03 0.05 0.06 0.09 0.15 0.16 0.15 0.14 0.14 0.18 0.22 0.23 0.24 0.21 0.20 0.17 0.12 0.08 0.08 0.09 0.07 0.05 0.03
0.02 0.02 0.01 0.00 0.01 0.01 0.01 0.01 0.00 0.00 0.01 0.01 0.02 0.03 0.02 0.02 0.02 0.03 0.03 0.03 0.05 0.07 0.07 0.06 0.08 0.09 0.09 0.10 0.10 0.12 0.14 0.16 0.18 0.18 0.18 0.16 0.15 0.12 0.11 0.10 0.09 0.07 0.04
0.03 0.02 0.01 0.01 0.01 0.01 0.01 0.01 0.01 0.01 0.01 0.01 0.01 0.02 0.02 0.02 0.02 0.02 0.02 0.03 0.03 0.04 0.06 0.07 0.09 0.07 0.06 0.07 0.10 0.11 0.11 0.12 0.12 0.13 0.15 0.16 0.17 0.14 0.10 0.09 0.10 0.10 0.07
0.05 0.03 0.01 0.01 0.01 0.01 0.00 0.01 0.01 0.02 0.02 0.02 0.02 0.02 0.02 0.02 0.01 0.02 0.02 0.03 0.02 0.02 0.03 0.04 0.07 0.08 0.07 0.05 0.05 0.08 0.09 0.11 0.12 0.14 0.15 0.15 0.14 0.15 0.13 0.10 0.10 0.12 0.12
0.03 0.03 0.02 0.01 0.01 0.01 0.01 0.01 0.01 0.01 0.02 0.03 0.03 0.03 0.03 0.02 0.02 0.02 0.03 0.03 0.03 0.02 0.02 0.03 0.04 0.05 0.06 0.06 0.06 0.06 0.08 0.08 0.10 0.12 0.13 0.15 0.14 0.15 0.16 0.13 0.11 0.11 0.13
0.00 0.01 0.01 0.01 0.01 0.00 0.00 0.00 0.01 0.01 0.02 0.02 0.02 0.02 0.02 0.02 0.02 0.02 0.03 0.03 0.02 0.02 0.02 0.02 0.02 0.03 0.04 0.05 0.05 0.06 0.06 0.07 0.08 0.10 0.12 0.13 0.13 0.13 0.16 0.18 0.15 0.11 0.10
0.00 0.00 0.00 0.00 0.00 0.00 0.00 0.00 0.00 0.01 0.01 0.01 0.01 0.00 0.01 0.01 0.01 0.01 0.02 0.03 0.04 0.04 0.04 0.03 0.03 0.03 0.03 0.03 0.04 0.05 0.05 0.06 0.08 0.11 0.11 0.13 0.17 0.17 0.15 0.15 0.16 0.14 0.12
0.00 0.00 0.00 0.00 0.00 0.00 0.00 0.00 0.00 0.00 0.00 0.00 0.00 0.00 0.00 0.00 0.00 0.01 0.01 0.02 0.03 0.04 0.04 0.04 0.04 0.04 0.04 0.03 0.03 0.03 0.03 0.03 0.04 0.09 0.14 0.14 0.15 0.17 0.19 0.17 0.15 0.14 0.15
0.00 0.00 0.00 0.00 0.00 0.00 0.00 0.00 0.00 0.00 0.00 0.00 0.00 0.00 0.00 0.00 0.00 0.00 0.01 0.02 0.03 0.04 0.05 0.05 0.05 0.05 0.05 0.04 0.04 0.04 0.03 0.02 0.02 0.04 0.08 0.13 0.14 0.14 0.15 0.15 0.16 0.16 0.14
0.00 0.00 0.00 0.00 0.00 0.00 0.00 0.00 0.00 0.00 0.00 0.00 0.00 0.00 0.00 0.00 0.00 0.00 0.01 0.01 0.02 0.04 0.04 0.06 0.07 0.06 0.06 0.06 0.06 0.05 0.04 0.02 0.02 0.02 0.04 0.08 0.12 0.12 0.12 0.11 0.13 0.16 0.17
0.00 0.00 0.00 0.00 0.00 0.00 0.00 0.00 0.00 0.00 0.00 0.00 0.00 0.00 0.00 0.00 0.00 0.00 0.01 0.01 0.01 0.02 0.03 0.04 0.05 0.05 0.05 0.06 0.07 0.08 0.06 0.04 0.03 0.02 0.02 0.04 0.07 0.08 0.09 0.09 0.09 0.11 0.14
0.00 0.00 0.00 0.00 0.00 0.00 0.00 0.00 0.00 0.00 0.00 0.00 0.00 0.00 0.00 0.00 0.00 0.00 0.01 0.01 0.01 0.01 0.02 0.02 0.02 0.02 0.03 0.03 0.03 0.05 0.07 0.07 0.06 0.04 0.03 0.03 0.04 0.05 0.06 0.06 0.05 0.06 0.09
0.00 0.00 0.00 0.00 0.00 0.00 0.00 0.00 0.00 0.00 0.00 0.00 0.00 0.00 0.00 0.00 0.00 0.00 0.00 0.00 0.01 0.01 0.01 0.02 0.02 0.02 0.02 0.02 0.02 0.03 0.04 0.06 0.06 0.06 0.05 0.04 0.05 0.05 0.05 0.05 0.05 0.05 0.06
0.00 0.00 0.00 0.00 0.00 0.00 0.00 0.00 0.00 0.00 0.00 0.00 0.00 0.00 0.00 0.00 0.00 0.00 0.00 0.00 0.01 0.01 0.01 0.01 0.01 0.02 0.02 0.02 0.02 0.03 0.04 0.05 0.06 0.05 0.05 0.06 0.06 0.06 0.05 0.05 0.05 0.04 0.04
0.00 0.00 0.00 0.00 0.00 0.00 0.00 0.00 0.00 0.00 0.00 0.00 0.00 0.00 0.00 0.00 0.00 0.00 0.00 0.01 0.01 0.01 0.01 0.01 0.01 0.01 0.01 0.01 0.01 0.02 0.03 0.05 0.06 0.06 0.06 0.07 0.08 0.08 0.08 0.07 0.05 0.05 0.04
0.00 0.00 0.00 0.00 0.00 0.00 0.00 0.00 0.00 0.00 0.00 0.00 0.00 0.00 0.00 0.00 0.00 0.00 0.00 0.01 0.01 0.01 0.01 0.01 0.01 0.01 0.01 0.01 0.01 0.01 0.01 0.03 0.04 0.04 0.04 0.05 0.06 0.07 0.08 0.07 0.06 0.05 0.04
0.00 0.00 0.00 0.00 0.00 0.00 0.00 0.00 0.00 0.00 0.00 0.00 0.00 0.00 0.01 0.01 0.00 0.00 0.01 0.01 0.01 0.01 0.01 0.01 0.01 0.01 0.01 0.01 0.01 0.01 0.01 0.02 0.03 0.04 0.03 0.04 0.04 0.04 0.05 0.05 0.04 0.04 0.04
0.00 0.00 0.00 0.00 0.00 0.00 0.00 0.00 0.00 0.00 0.00 0.00 0.00 0.00 0.01 0.00 0.00 0.01 0.01 0.01 0.01 0.01 0.01 0.01 0.01 0.01 0.01 0.01 0.01 0.01 0.01 0.02 0.03 0.03 0.04 0.04 0.03 0.02 0.02 0.03 0.03 0.02 0.03
0.00 0.00 0.00 0.00 0.00 0.00 0.00 0.00 0.00 0.00 0.00 0.00 0.00 0.00 0.01 0.00 0.00 0.01 0.01 0.01 0.01 0.01 0.01 0.01 0.01 0.01 0.01 0.01 0.01 0.01 0.01 0.02 0.03 0.03 0.04 0.04 0.03 0.02 0.01 0.02 0.02 0.02 0.02
0.00 0.00 0.00 0.00 0.00 0.00 0.00 0.00 0.00 0.00 0.00 0.00 0.00 0.00 0.01 0.01 0.01 0.01 0.01 0.01 0.01 0.01 0.01 0.02 0.02 0.02 0.02 0.01 0.01 0.01 0.01 0.02 0.02 0.03 0.04 0.03 0.03 0.02 0.01 0.01 0.01 0.01 0.02
0.00 0.00 0.00 0.00 0.00 0.00 0.00 0.00 0.00 0.00 0.00 0.00 0.00 0.01 0.01 0.01 0.01 0.02 0.01 0.01 0.01 0.02 0.01 0.01 0.02 0.03 0.02 0.02 0.01 0.01 0.02 0.02 0.03 0.03 0.03 0.02 0.02 0.02 0.01 0.01 0.01 0.01 0.01
0.00 0.00 0.00 0.00 0.00 0.00 0.00 0.00 0.00 0.00 0.00 0.00 0.00 0.01 0.01 0.01 0.01 0.02 0.02 0.01 0.01 0.01 0.01 0.02 0.02 0.02 0.02 0.01 0.01 0.01 0.02 0.03 0.03 0.03 0.03 0.02 0.02 0.02 0.02 0.01 0.01 0.01 0.01
0.00 0.00 0.00 0.00 0.00 0.00 0.00 0.00 0.00 0.00 0.00 0.00 0.00 0.01 0.01 0.01 0.01 0.01 0.01 0.01 0.01 0.01 0.01 0.01 0.01 0.02 0.01 0.01 0.01 0.01 0.02 0.02 0.02 0.02 0.03 0.02 0.02 0.01 0.02 0.02 0.02 0.02 0.01
MSLP
1013.46 1013.34 1013.28 1013.24 1013.17 1013.05 1012.89 1012.71 1012.55 1012.46 1012.44 1012.50 1012.62 1012.75 1012.84 1012.87 1012.79 1012.64 1012.43 1012.21 1012.05 1011.97 1012.01 1012.17 1012.38 1012.61 1012.78 1012.84 1012.74 1012.47 1012.07 1011.58 1011.07 1010.61 1010.27 1010.06 1009.99 1010.06 1010.21 1010.41 1010.62 1010.81 1010.99
1013.65 1013.52 1013.44 1013.35 1013.22 1013.05 1012.85 1012.65 1012.51 1012.46 1012.51 1012.64 1012.81 1012.97 1013.07 1013.05 1012.91 1012.66 1012.36 1012.08 1011.86 1011.76 1011.81 1011.99 1012.23 1012.48 1012.64 1012.65 1012.48 1012.11 1011.59 1010.98 1010.36 1009.82 1009.42 1009.20 1009.15 1009.26 1009.47 1009.73 1009.99 1010.22 1010.42
1013.64 1013.54 1013.48 1013.39 1013.25 1013.05 1012.82 1012.62 1012.50 1012.48 1012.58 1012.77 1012.99 1013.18 1013.28 1013.24 1013.04 1012.73 1012.35 1011.99 1011.72 1011.58 1011.61 1011.77 1012.01 1012.25 1012.38 1012.35 1012.12 1011.68 1011.08 1010.39 1009.71 1009.12 1008.70 1008.47 1008.44 1008.58 1008.83 1009.13 1009.43 1009.70 1009.91
1013.56 1013.53 1013.52 1013.46 1013.32 1013.12 1012.89 1012.69 1012.57 1012.57 1012.69 1012.91 1013.17 1013.37 1013.47 1013.41 1013.18 1012.82 1012.39 1011.96 1011.63 1011.44 1011.41 1011.53 1011.73 1011.93 1012.03 1011.96 1011.69 1011.22 1010.59 1009.87 1009.17 1008.57 1008.14 1007.91 1007.89 1008.04 1008.31 1008.63 1008.95 1009.22 1009.44
1013.52 1013.57 1013.62 1013.61 1013.51 1013.31 1013.08 1012.86 1012.73 1012.73 1012.85 1013.07 1013.33 1013.54 1013.64 1013.57 1013.32 1012.92 1012.44 1011.96 1011.56 1011.30 1011.21 1011.26 1011.40 1011.54 1011.60 1011.51 1011.23 1010.76 1010.14 1009.45 1008.77 1008.18 1007.76 1007.54 1007.51 1007.65 1007.90 1008.21 1008.51 1008.77 1008.98
1013.55 1013.69 1013.82 1013.86 1013.79 1013.61 1013.37 1013.14 1012.98 1012.94 1013.04 1013.23 1013.47 1013.66 1013.75 1013.67 1013.41 1012.99 1012.48 1011.96 1011.51 1011.18 1011.00 1010.97 1011.03 1011.11 1011.13 1011.03 1010.76 1010.33 1009.76 1009.13 1008.50 1007.96 1007.56 1007.33 1007.27 1007.37 1007.57 1007.82 1008.08 1008.31 1008.50
1013.68 1013.89 1014.08 1014.18 1014.14 1013.98 1013.73 1013.48 1013.28 1013.20 1013.24 1013.38 1013.57 1013.73 1013.79 1013.70 1013.43 1013.01 1012.49 1011.94 1011.44 1011.04 1010.79 1010.67 1010.65 1010.66 1010.65 1010.54 1010.30 1009.93 1009.45 1008.90 1008.35 1007.86 1007.48 1007.24 1007.14 1007.16 1007.28 1007.46 1007.64 1007.83 1007.99
1013.86 1014.12 1014.36 1014.50 1014.49 1014.35 1014.10 1013.83 1013.60 1013.46 1013.43 1013.50 1013.62 1013.73 1013.75 1013.64 1013.37 1012.95 1012.42 1011.86 1011.33 1010.88 1010.55 1010.36 1010.26 1010.21 1010.17 1010.06 1009.87 1009.57 1009.18 1008.73 1008.26 1007.83 1007.47 1007.22 1007.06 1007.00 1007.03 1007.10 1007.21 1007.33 1007.47
1014.04 1014.32 1014.59 1014.76 1014.79 1014.67 1014.43 1014.15 1013.88 1013.69 1013.59 1013.58 1013.62 1013.66 1013.63 1013.49 1013.20 1012.79 1012.27 1011.71 1011.16 1010.67 1010.29 1010.03 1009.87 1009.77 1009.69 1009.59 1009.44 1009.21 1008.91 1008.56 1008.19 1007.82 1007.49 1007.21 1007.01 1006.87 1006.79 1006.77 1006.80 1006.87 1006.98
1014.19 1014.47 1014.75 1014.94 1014.99 1014.90 1014.68 1014.40 1014.12 1013.88 1013.71 1013.62 1013.57 1013.53 1013.43 1013.25 1012.94 1012.53 1012.02 1011.47 1010.91 1010.41 1010.00 1009.68 1009.46 1009.31 1009.21 1009.11 1008.99 1008.83 1008.62 1008.36 1008.08 1007.77 1007.47 1007.20 1006.95 1006.75 1006.59 1006.50 1006.45 1006.48 1006.57
1014.29 1014.57 1014.84 1015.03 1015.10 1015.02 1014.83 1014.57 1014.27 1014.00 1013.78 1013.60 1013.46 1013.33 1013.16 1012.92 1012.59 1012.17 1011.67 1011.13 1010.59 1010.08 1009.64 1009.29 1009.03 1008.84 1008.70 1008.60 1008.50 1008.39 1008.25 1008.08 1007.88 1007.65 1007.39 1007.14 1006.88 1006.65 1006.45 1006.30 1006.22 1006.21 1006.29
1014.38 1014.62 1014.86 1015.04 1015.11 1015.06 1014.90 1014.65 1014.36 1014.06 1013.79 1013.54 1013.31 1013.08 1012.83 1012.53 1012.16 1011.72 1011.23 1010.71 1010.18 1009.68 1009.24 1008.86 1008.56 1008.33 1008.16 1008.04 1007.95 1007.87 1007.79 1007.69 1007.57 1007.41 1007.23 1007.01 1006.79 1006.56 1006.35 1006.19 1006.09 1006.08 1006.16
1014.48 1014.67 1014.87 1015.02 1015.08 1015.03 1014.88 1014.65 1014.36 1014.05 1013.73 1013.41 1013.10 1012.78 1012.44 1012.07 1011.66 1011.20 1010.72 1010.21 1009.71 1009.22 1008.77 1008.38 1008.05 1007.78 1007.58 1007.43 1007.33 1007.27 1007.22 1007.18 1007.13 1007.06 1006.95 1006.81 1006.64 1006.46 1006.29 1006.14 1006.06 1006.05 1006.14
1014.61 1014.74 1014.87 1014.97 1015.00 1014.94 1014.80 1014.58 1014.29 1013.96 1013.59 1013.22 1012.82 1012.42 1012.00 1011.56 1011.10 1010.63 1010.15 1009.66 1009.18 1008.71 1008.27 1007.87 1007.51 1007.20 1006.96 1006.77 1006.65 1006.59 1006.56 1006.57 1006.58 1006.59 1006.57 1006.52 1006.43 1006.32 1006.20 1006.10 1006.05 1006.07 1006.17
1014.77 1014.83 1014.88 1014.91 1014.89 1014.80 1014.64 1014.42 1014.12 1013.77 1013.37 1012.94 1012.48 1012.00 1011.51 1011.01 1010.51 1010.02 1009.54 1009.07 1008.61 1008.17 1007.74 1007.33 1006.95 1006.61 1006.32 1006.09 1005.94 1005.86 1005.84 1005.88 1005.95 1006.02 1006.09 1006.13 1006.13 1006.10 1006.06 1006.02 1006.01 1006.06 1006.18
1014.93 1014.91 1014.87 1014.82 1014.74 1014.60 1014.42 1014.17 1013.87 1013.50 1013.07 1012.59 1012.07 1011.53 1010.98 1010.43 1009.90 1009.40 1008.92 1008.47 1008.04 1007.61 1007.20 1006.79 1006.39 1006.02 1005.69 1005.43 1005.23 1005.13 1005.10 1005.16 1005.26 1005.40 1005.53 1005.65 1005.74 1005.79 1005.81 1005.83 1005.87 1005.95 1006.10
1015.03 1014.93 1014.82 1014.68 1014.53 1014.35 1014.13 1013.86 1013.53 1013.14 1012.69 1012.17 1011.61 1011.02 1010.43 1009.85 1009.30 1008.79 1008.32 1007.89 1007.47 1007.07 1006.67 1006.27 1005.86 1005.47 1005.11 1004.81 1004.58 1004.45 1004.41 1004.46 1004.59 1004.76 1004.94 1005.12 1005.27 1005.38 1005.47 1005.54 1005.62 1005.73 1005.89
1015.02 1014.86 1014.68 1014.48 1014.27 1014.04 1013.79 1013.50 1013.15 1012.74 1012.26 1011.72 1011.13 1010.51 1009.89 1009.28 1008.72 1008.21 1007.75 1007.33 1006.94 1006.57 1006.19 1005.79 1005.39 1004.99 1004.61 1004.28 1004.03 1003.87 1003.82 1003.86 1003.99 1004.17 1004.38 1004.59 1004.78 1004.93 1005.05 1005.15 1005.26 1005.39 1005.58
1014.88 1014.68 1014.46 1014.22 1013.96 1013.70 1013.43 1013.11 1012.75 1012.33 1011.83 1011.27 1010.66 1010.02 1009.38 1008.76 1008.19 1007.68 1007.23 1006.82 1006.46 1006.10 1005.74 1005.37 1004.98 1004.58 1004.21 1003.87 1003.61 1003.44 1003.37 1003.41 1003.53 1003.71 1003.92 1004.13 1004.32 1004.49 1004.62 1004.74 1004.86 1005.01 1005.21
1014.61 1014.40 1014.16 1013.91 1013.64 1013.37 1013.08 1012.76 1012.39 1011.95 1011.44 1010.87 1010.24 1009.59 1008.93 1008.30 1007.72 1007.21 1006.76 1006.37 1006.02 1005.68 1005.35 1005.00 1004.63 1004.27 1003.91 1003.60 1003.35 1003.18 1003.11 1003.14 1003.24 1003.41 1003.60 1003.80 1003.98 1004.13 1004.26 1004.38 1004.50 1004.65 1004.86
1014.24 1014.05 1013.83 1013.59 1013.34 1013.07 1012.79 1012.47 1012.09 1011.65 1011.13 1010.54 1009.90 1009.23 1008.56 1007.92 1007.33 1006.81 1006.36 1005.97 1005.63 1005.31 1005.00 1004.68 1004.36 1004.03 1003.72 1003.44 1003.23 1003.08 1003.03 1003.06 1003.15 1003.30 1003.47 1003.64 1003.79 1003.92 1004.03 1004.13 1004.25 1004.41 1004.62
1013.83 1013.68 1013.50 1013.29 1013.07 1012.83 1012.56 1012.25 1011.87 1011.42 1010.89 1010.29 1009.64 1008.96 1008.27 1007.62 1007.01 1006.48 1006.02 1005.63 1005.29 1004.98 1004.70 1004.42 1004.14 1003.87 1003.61 1003.40 1003.23 1003.13 1003.11 1003.15 1003.24 1003.37 1003.51 1003.65 1003.77 1003.87 1003.95 1004.04 1004.15 1004.31 1004.53
1013.41 1013.32 1013.19 1013.03 1012.86 1012.65 1012.40 1012.10 1011.72 1011.26 1010.73 1010.12 1009.45 1008.76 1008.06 1007.39 1006.78 1006.23 1005.76 1005.35 1005.01 1004.72 1004.45 1004.21 1003.98 1003.77 1003.58 1003.43 1003.33 1003.29 1003.30 1003.36 1003.46 1003.58 1003.70 1003.80 1003.89 1003.96 1004.03 1004.10 1004.20 1004.36 1004.58
1013.02 1012.98 1012.91 1012.81 1012.68 1012.51 1012.28 1011.99 1011.61 1011.15 1010.61 1009.99 1009.32 1008.62 1007.91 1007.24 1006.61 1006.06 1005.57 1005.16 1004.81 1004.52 1004.27 1004.06 1003.88 1003.72 1003.60 1003.52 1003.49 1003.49 1003.55 1003.63 1003.74 1003.85 1003.95 1004.03 1004.09 1004.14 1004.19 1004.25 1004.35 1004.51 1004.73
1012.66 1012.67 1012.65 1012.60 1012.51 1012.36 1012.15 1011.87 1011.49 1011.03 1010.49 1009.88 1009.21 1008.52 1007.82 1007.15 1006.53 1005.97 1005.47 1005.06 1004.70 1004.41 1004.18 1003.99 1003.84 1003.73 1003.67 1003.64 1003.66 1003.71 1003.79 1003.90 1004.01 1004.11 1004.19 1004.25 1004.29 1004.32 1004.35 1004.41 1004.51 1004.67 1004.90
1012.32 1012.36 1012.38 1012.37 1012.30 1012.18 1011.98 1011.70 1011.33 1010.88 1010.35 1009.75 1009.11 1008.44 1007.77 1007.12 1006.52 1005.96 1005.48 1005.05 1004.70 1004.41 1004.17 1004.00 1003.87 1003.79 1003.75 1003.76 1003.81 1003.89 1003.99 1004.09 1004.19 1004.27 1004.33 1004.36 1004.38 1004.39 1004.42 1004.47 1004.58 1004.75 1004.98
Thickness
5741 5743 5743 5743 5742 5740 5737 5736 5734 5732 5730 5727 5723 5721 5718 5718 5718 5717 5715 5714 5714 5714 5714 5712 5711 5710 5709 5708 5708 5708 5709 5710 5711 5708 5709 5714 5718 5721 5724 5727 5728 5730 5731
5734 5737 5738 5737 5734 5731 5729 5727 5725 5723 5721 5718 5715 5713 5710 5708 5708 5707 5706 5705 5705 5705 5705 5704 5703 5702 5701 5701 5701 5701 5702 5703 5705 5701 5699 5699 5705 5713 5721 5723 5725 5727 5728
5729 5732 5733 5731 5728 5726 5723 5722 5718 5715 5713 5710 5707 5704 5700 5697 5695 5694 5694 5695 5695 5696 5696 5695 5694 5693 5693 5693 5694 5695 5694 5694 5697 5698 5696 5692 5694 5702 5711 5717 5722 5724 5725
5728 5727 5728 5726 5723 5722 5720 5716 5712 5709 5705 5702 5697 5691 5686 5683 5682 5682 5682 5684 5685 5685 5685 5685 5685 5685 5684 5684 5686 5688 5688 5689 5689 5691 5694 5695 5697 5695 5698 5706 5714 5719 5722
5725 5724 5723 5722 5720 5717 5713 5709 5705 5701 5697 5692 5688 5682 5677 5674 5673 5672 5671 5671 5672 5673 5674 5674 5674 5674 5675 5676 5677 5678 5679 5681 5682 5683 5685 5687 5690 5693 5692 5693 5701 5708 5715
5722 5719 5717 5714 5711 5708 5704 5700 5695 5690 5686 5682 5678 5673 5668 5665 5662 5660 5659 5659 5660 5661 5662 5663 5663 5664 5664 5666 5667 5668 5669 5671 5674 5676 5678 5680 5681 5684 5686 5688 5692 5697 5705
5714 5709 5706 5703 5699 5695 5692 5688 5683 5677 5674 5671 5667 5662 5659 5655 5652 5650 5648 5647 5647 5648 5650 5652 5652 5653 5653 5655 5657 5658 5659 5661 5663 5666 5670 5673 5676 5680 5682 5683 5685 5688 5695
5706 5702 5697 5693 5689 5685 5680 5675 5670 5666 5662 5659 5655 5651 5648 5644 5642 5640 5638 5637 5637 5637 5639 5640 5641 5643 5643 5645 5646 5647 5649 5651 5653 5657 5660 5665 5669 5673 5677 5678 5679 5679 5683
5698 5693 5689 5685 5680 5675 5670 5665 5660 5655 5651 5647 5643 5640 5637 5634 5631 5630 5628 5627 5627 5628 5629 5629 5629 5631 5632 5634 5635 5636 5638 5641 5643 5647 5650 5654 5660 5664 5669 5672 5675 5674 5674
5690 5686 5682 5677 5672 5668 5662 5657 5651 5646 5641 5637 5633 5630 5626 5623 5621 5619 5618 5617 5617 5617 5617 5617 5618 5618 5620 5621 5623 5624 5628 5630 5633 5636 5639 5643 5648 5654 5658 5662 5667 5670 5672
5684 5679 5675 5671 5666 5660 5654 5649 5643 5637 5632 5628 5624 5620 5617 5614 5612 5609 5607 5606 5605 5605 5605 5605 5605 5606 5607 5608 5610 5612 5615 5617 5621 5624 5628 5633 5637 5642 5646 5651 5657 5661 5664
5680 5675 5670 5664 5659 5653 5647 5641 5635 5630 5625 5620 5616 5612 5608 5605 5602 5599 5597 5596 5594 5594 5593 5593 5593 5593 5594 5595 5597 5599 5602 5604 5608 5612 5615 5620 5625 5630 5635 5639 5645 5650 5655
5676 5669 5663 5657 5652 5646 5640 5634 5628 5623 5618 5613 5608 5604 5600 5596 5593 5590 5588 5586 5584 5582 5581 5580 5580 5580 5581 5582 5584 5587 5589 5592 5596 5600 5603 5608 5611 5616 5621 5627 5632 5638 5644
5669 5663 5656 5650 5645 5639 5633 5627 5621 5616 5611 5606 5600 5596 5592 5588 5585 5582 5579 5576 5573 5571 5570 5569 5568 5568 5569 5570 5572 5574 5577 5580 5584 5588 5592 5596 5600 5604 5608 5614 5619 5624 5629
5665 5659 5651 5645 5639 5633 5626 5620 5614 5609 5604 5598 5593 5589 5585 5582 5578 5574 5571 5568 5565 5563 5561 5559 5557 5557 5557 5559 5561 5562 5566 5568 5572 5576 5580 5584 5589 5594 5598 5603 5607 5612 5617
5661 5655 5649 5642 5634 5627 5621 5614 5608 5603 5598 5592 5588 5584 5579 5575 5571 5567 5564 5560 5557 5554 5552 5550 5549 5547 5549 5550 5551 5551 5553 5556 5559 5563 5568 5572 5577 5582 5587 5593 5598 5602 5606
5658 5651 5644 5636 5629 5622 5616 5609 5603 5598 5592 5587 5583 5579 5574 5570 5566 5563 5558 5553 5549 5547 5544 5542 5541 5539 5539 5540 5541 5542 5543 5544 5547 5551 5555 5561 5567 5570 5575 5580 5586 5591 5597
5655 5647 5639 5632 5625 5618 5611 5605 5599 5593 5588 5582 5578 5574 5569 5565 5561 5556 5551 5547 5543 5539 5537 5535 5534 5532 5532 5533 5533 5534 5534 5535 5537 5541 5544 5548 5553 5558 5563 5568 5573 5578 5585
5652 5644 5637 5629 5621 5614 5608 5600 5594 5588 5583 5578 5574 5570 5565 5561 5556 5551 5547 5542 5538 5534 5531 5529 5528 5525 5526 5526 5526 5526 5525 5526 5528 5531 5535 5538 5542 5548 5553 5557 5562 5567 5572
5649 5641 5633 5626 5618 5611 5604 5596 5589 5584 5579 5574 5570 5566 5561 5557 5552 5548 5543 5539 5534 5531 5528 5526 5523 5521 5521 5521 5521 5520 5518 5518 5520 5522 5526 5530 5533 5538 5542 5547 5551 5556 5562
5647 5639 5631 5621 5614 5608 5600 5592 5585 5580 5576 5571 5567 5563 5559 5554 5550 5545 5541 5536 5532 5528 5525 5522 5520 5518 5517 5517 5516 5515 5512 5512 5512 5514 5517 5520 5525 5529 5534 5539 5543 5549 5554
5644 5636 5626 5617 5611 5604 5596 5588 5582 5578 5573 5568 5563 5560 5556 5552 5550 5543 5538 5534 5529 5525 5521 5518 5516 5515 5514 5513 5512 5510 5509 5508 5506 5508 5511 5514 5518 5521 5525 5530 5535 5541 5544
5639 5631 5622 5614 5607 5601 5593 5586 5580 5576 5570 5565 5561 5557 5554 5550 5546 5541 5537 5533 5528 5522 5518 5514 5512 5511 5510 5509 5508 5506 5505 5504 5503 5504 5506 5509 5513 5516 5519 5524 5528 5532 5535
5635 5627 5619 5610 5604 5598 5592 5584 5579 5574 5568 5563 5559 5555 5552 5549 5546 5541 5536 5531 5527 5522 5517 5513 5510 5508 5507 5505 5503 5502 5501 5501 5501 5500 5502 5504 5507 5510 5513 5517 5520 5525 5530
5632 5624 5615 5608 5602 5596 5589 5583 5578 5572 5566 5561 5557 5554 5551 5548 5545 5541 5537 5533 5528 5522 5517 5512 5508 5506 5505 5504 5501 5499 5498 5497 5497 5497 5498 5499 5500 5502 5505 5509 5514 5518 5523
5629 5621 5613 5606 5600 5594 5588 5582 5576 5570 5565 5560 5557 5554 5551 5548 5544 5541 5539 5536 5531 5526 5520 5515 5510 5507 5505 5502 5500 5498 5497 5496 5496 5495 5495 5496 5498 5500 5503 5505 5509 5513 5518